This demonstration page uses our WeatherBlox Daily Observations layout. Learn more.

Left ArrowRight Arrow

39.51506, -84.39828

Hourly Observations for December 13, 2015

Temp ( °F °C ) Dew Point ( °F °C ) Humidity (%) Winds ( mph kmh ) Pressure ( in mb ) Visibility ( mi km ) Precip ( " mm )
12:15 am 00:15 Clear 60 15.7 55 12.9 84 84 SSW 6 9 30.12 1020 10 16.0934 N/A
12:35 am 00:35 Clear 59 15.2 56 13.1 87 87 N N/A 30.12 1020 10 16.0934 N/A
12:55 am 00:55 Clear 60 15.3 56 13.4 89 89 N N/A 30.12 1020 10 16.0934 N/A
1:15 am 01:15 Clear 58 14.4 55 12.5 88 88 N N/A 30.12 1020 10 16.0934 N/A
1:35 am 01:35 Clear 57 13.7 53 11.9 89 89 N N/A 30.12 1020 10 16.0934 N/A
1:55 am 01:55 Clear 55 12.5 51 10.6 88 88 N N/A 30.12 1020 10 16.0934 N/A
2:15 am 02:15 Clear 55 12.5 51 10.6 88 88 N N/A 30.12 1020 10 16.0934 N/A
2:35 am 02:35 Clear 56 13.1 53 11.5 90 90 N N/A 30.12 1020 7 11.26538 N/A
2:55 am 02:55 Clear 55 12.5 51 10.8 89 89 N N/A 30.12 1020 7 11.26538 N/A
3:15 am 03:15 Clear with Mist and Fog 55 12.5 51 10.8 89 89 N N/A 30.12 1020 5 8.0467 N/A
3:35 am 03:35 Clear 55 12.5 52 10.9 90 90 N N/A 30.12 1020 7 11.26538 N/A
3:55 am 03:55 Clear 55 12.5 52 11 91 91 N N/A 30.12 1020 7 11.26538 N/A
4:15 am 04:15 Partly Cloudy with Mist and Fog 55 12.5 51 10.8 89 89 N N/A 30.09 1019 4 6.43736 N/A
4:35 am 04:35 Partly Cloudy with Mist and Fog 55 12.5 52 11 91 91 N N/A 30.09 1019 4 6.43736 N/A
4:55 am 04:55 Clear with Mist and Fog 55 12.5 52 11 91 91 SSW 3 6 30.09 1019 5 8.0467 N/A
5:15 am 05:15 Clear with Mist and Fog 55 12.5 52 11 91 91 N N/A 30.09 1019 4 6.43736 N/A
5:35 am 05:35 Clear with Mist and Fog 55 12.5 52 11 91 91 N N/A 30.09 1019 4 6.43736 N/A
5:55 am 05:55 Clear with Mist and Fog 56 13.1 53 11.7 91 91 N N/A 30.09 1019 4 6.43736 N/A
6:15 am 06:15 Clear with Mist and Fog 55 12.5 52 11 91 91 N N/A 30.09 1019 2 3.21868 N/A
6:35 am 06:35 Clear with Mist and Fog 57 13.7 54 12.3 91 91 N N/A 30.09 1019 3 4.82802 N/A
6:55 am 06:55 Clear with Mist and Fog 57 13.8 55 12.5 92 92 S 5 7 30.09 1019 5 8.0467 N/A
7:15 am 07:15 Clear 60 15.3 57 13.8 91 91 SSW 6 9 30.09 1019 10 16.0934 N/A
7:35 am 07:35 Clear 57 13.8 54 12.2 90 90 N N/A 30.09 1019 7 11.26538 N/A
7:55 am 07:55 Sunny 60 15.3 56 13.5 89 89 SSW 3 6 30.09 1019 10 16.0934 N/A
8:15 am 08:15 Sunny 60 15.3 56 13.1 87 87 N N/A 30.09 1019 10 16.0934 N/A
8:35 am 08:35 Sunny 60 15.3 56 13.1 87 87 N N/A 30.09 1019 10 16.0934 N/A
8:55 am 08:55 Sunny 60 15.3 55 12.8 85 85 N N/A 30.09 1019 10 16.0934 N/A
9:15 am 09:15 Sunny 60 15.3 55 12.8 85 85 N N/A 30.09 1019 10 16.0934 N/A
9:35 am 09:35 Sunny 60 15.3 55 13 86 86 N N/A 30.06 1018 10 16.0934 N/A
9:55 am 09:55 Sunny 60 15.7 55 13 84 84 N N/A 30.03 1017 10 16.0934 N/A
10:15 am 10:15 Sunny 61 16 55 13 83 83 S 7 11 30.03 1017 10 16.0934 N/A
10:35 am 10:35 Sunny 62 16.6 56 13.5 82 82 S 8 13 30.03 1017 10 16.0934 N/A
10:55 am 10:55 Sunny 62 16.6 56 13.5 82 82 S 5 7 30.03 1017 10 16.0934 N/A
11:15 am 11:15 Sunny 62 16.6 56 13.1 80 80 S 6 9 30.03 1017 10 16.0934 N/A
11:35 am 11:35 Sunny 63 17 56 13.4 79 79 S 6 9 30.03 1017 10 16.0934 N/A
11:55 am 11:55 Sunny 63 17.3 56 13.2 77 77 S 8 13 30.03 1017 10 16.0934 N/A
12:15 pm 12:15 Sunny 64 18 56 13.6 76 76 S 5 7 30 1016 10 16.0934 N/A
12:35 pm 12:35 Sunny 64 18 55 12.9 72 72 S 7 11 30 1016 10 16.0934 N/A
12:55 pm 12:55 Sunny 64 18 54 12.3 69 69 S 8 13 29.97 1015 10 16.0934 N/A
1:15 pm 13:15 Sunny 64 18 54 12.4 70 70 S 9 15 29.97 1015 10 16.0934 N/A
1:35 pm 13:35 Sunny 64 18 54 12.3 69 69 S 9 15 29.97 1015 10 16.0934 N/A
1:55 pm 13:55 Sunny 64 18 54 12.2 69 69 S 9 15 29.94 1014 10 16.0934 N/A
2:15 pm 14:15 Sunny 64 18 55 12.6 71 71 S 8 13 29.94 1014 10 16.0934 N/A
2:35 pm 14:35 Sunny 64 18 54 12.4 70 70 SSW 7 11 29.94 1014 10 16.0934 N/A
2:55 pm 14:55 Sunny 64 18 55 12.5 70 70 S 5 7 29.91 1013 10 16.0934 N/A
3:15 pm 15:15 Sunny 64 18 55 12.5 70 70 SSE 7 11 29.91 1013 10 16.0934 N/A
3:35 pm 15:35 Sunny 64 18 54 12.4 70 70 S 6 9 29.91 1013 10 16.0934 N/A
3:55 pm 15:55 Sunny 64 18 54 12.1 69 69 SE 3 6 29.88 1012 10 16.0934 N/A
4:15 pm 16:15 Sunny 64 18 55 12.5 70 70 SSE 3 6 29.88 1012 10 16.0934 N/A
4:35 pm 16:35 Sunny 63 17.4 54 12.2 72 72 SSE 3 6 29.91 1013 10 16.0934 N/A
4:55 pm 16:55 Sunny 63 17.1 54 12.1 73 73 SSE 5 7 29.88 1012 10 16.0934 N/A
5:15 pm 17:15 Clear 63 17 53 11.9 72 72 SSE 6 9 29.88 1012 10 16.0934 N/A
5:35 pm 17:35 Clear 63 17 54 12 73 73 SE 5 7 29.88 1012 10 16.0934 N/A
5:55 pm 17:55 Clear 63 17.2 53 11.6 70 70 N N/A 29.88 1012 10 16.0934 N/A
6:15 pm 18:15 Clear 63 17.3 53 11.6 69 69 N N/A 29.88 1012 10 16.0934 N/A
6:35 pm 18:35 Clear 63 17 53 11.5 70 70 N N/A 29.85 1011 10 16.0934 N/A
6:55 pm 18:55 Clear 62 16.6 52 11.2 71 71 N N/A 29.85 1011 10 16.0934 N/A
7:15 pm 19:15 Clear 63 17.3 52 11.1 67 67 SSE 5 7 29.85 1011 10 16.0934 N/A
7:35 pm 19:35 Clear 64 18 52 11 64 64 SSE 6 9 29.85 1011 10 16.0934 N/A
7:55 pm 19:55 Clear 64 18 51 10.5 62 62 SE 8 13 29.83 1010 10 16.0934 N/A
8:15 pm 20:15 Clear 64 18 51 10.5 62 62 SSE 7 11 29.85 1011 10 16.0934 N/A
8:35 pm 20:35 Clear 64 18 51 10.4 61 61 SSE 7 11 29.83 1010 10 16.0934 N/A
8:55 pm 20:55 Clear 64 18 50 10.2 61 61 SSE 6 9 29.83 1010 10 16.0934 N/A
9:15 pm 21:15 Clear 64 18 50 10.1 60 60 S 7 11 29.83 1010 10 16.0934 N/A
9:35 pm 21:35 Clear 63 17.4 49 9.6 60 60 SSE 6 9 29.83 1010 10 16.0934 N/A
9:55 pm 21:55 Clear 63 17.2 49 9.4 60 60 SSE 7 11 29.8 1009 10 16.0934 N/A
10:15 pm 22:15 Clear 63 17.1 48 8.9 59 59 SSE 8 13 29.8 1009 10 16.0934 N/A
10:35 pm 22:35 Clear 63 17 48 8.9 59 59 SSE 6 9 29.8 1009 10 16.0934 N/A
10:55 pm 22:55 Clear 62 16.8 48 8.7 59 59 S 8 13 29.77 1008 10 16.0934 N/A
11:15 pm 23:15 Clear 62 16.6 48 8.7 60 60 SSE 7 11 29.77 1008 10 16.0934 N/A
11:35 pm 23:35 Clear 62 16.6 48 8.8 60 60 SSE 7 11 29.77 1008 10 16.0934 N/A
11:55 pm 23:55 Clear 62 16.4 48 8.7 61 61 SSE 7 11 29.74 1007 10 16.0934 N/A

Powered by AerisWeather